Location: Dehesa de la Cepeda
(40.6574°N, 4.3013°W)
Time: 03:01:01
(UTC+00:00)

Courier 1B - Pass Details

Date: 02 August 2021
Orbit: 963 x 1209 km, 28.3° (Epoch: 17 September)

Event Time Altitude Azimuth Distance (km) Brightness Sun altitude
Rises 19:36:22 0° 241° (WSW) 4,102 11.3 -1.7°
Reaches altitude 10° 19:39:34 10° 232° (SW) 3,140 10.5 -2.3°
Maximum altitude 19:46:14 31° 173° (S) 1,955 8.8 -3.4°
Drops below altitude 10° 19:52:46 10° 115° (ESE) 3,073 9.4 -4.5°
Enters shadow 19:54:16 - 110° (ESE) 3,512 9.7 -4.7°
Sets 19:55:52 0° 105° (ESE) 4,004 - -5.0°
